����������;��������(kWh)
2018-05-28 00:00;78,6
2018-05-28 00:15;77,75
2018-05-28 00:30;78
2018-05-28 00:45;77,75
2018-05-28 01:00;77,45
2018-05-28 01:15;78,4
2018-05-28 01:30;77,55
2018-05-28 01:45;77,1
2018-05-28 02:00;76,7
2018-05-28 02:15;75,05
2018-05-28 02:30;76,15
2018-05-28 02:45;76,15
2018-05-28 03:00;75,45
2018-05-28 03:15;76,4
2018-05-28 03:30;76,95
2018-05-28 03:45;77,95
2018-05-28 04:00;78,85
2018-05-28 04:15;77,4
2018-05-28 04:30;77,6
2018-05-28 04:45;77,9
2018-05-28 05:00;78,15
2018-05-28 05:15;77,85
2018-05-28 05:30;78,1
2018-05-28 05:45;76,95
2018-05-28 06:00;78,75
2018-05-28 06:15;79,4
2018-05-28 06:30;77,1
2018-05-28 06:45;73,15
2018-05-28 07:00;73,5
2018-05-28 07:15;71,6
2018-05-28 07:30;69,75
2018-05-28 07:45;74,35
2018-05-28 08:00;77,8
2018-05-28 08:15;78,9
2018-05-28 08:30;79,8
2018-05-28 08:45;80,25
2018-05-28 09:00;82,75
2018-05-28 09:15;83,85
2018-05-28 09:30;92,15
2018-05-28 09:45;98,8
2018-05-28 10:00;100,3
2018-05-28 10:15;99
2018-05-28 10:30;98
2018-05-28 10:45;102,3
2018-05-28 11:00;102,9
2018-05-28 11:15;103,7
2018-05-28 11:30;98,5
2018-05-28 11:45;99,45
2018-05-28 12:00;99,75
2018-05-28 12:15;101,5
2018-05-28 12:30;100,75
2018-05-28 12:45;102,95
2018-05-28 13:00;103,8
2018-05-28 13:15;106,45
2018-05-28 13:30;105,35
2018-05-28 13:45;110,1
2018-05-28 14:00;109,5
2018-05-28 14:15;110,95
2018-05-28 14:30;110,75
2018-05-28 14:45;108,05
2018-05-28 15:00;104,9
2018-05-28 15:15;105,1
2018-05-28 15:30;101,25
2018-05-28 15:45;103,3
2018-05-28 16:00;102,25
2018-05-28 16:15;102,65
2018-05-28 16:30;98,6
2018-05-28 16:45;97,55
2018-05-28 17:00;100,65
2018-05-28 17:15;100,6
2018-05-28 17:30;96,7
2018-05-28 17:45;101,75
2018-05-28 18:00;101,9
2018-05-28 18:15;98,55
2018-05-28 18:30;96,7
2018-05-28 18:45;98,3
2018-05-28 19:00;96,25
2018-05-28 19:15;98,1
2018-05-28 19:30;98,7
2018-05-28 19:45;102,25
2018-05-28 20:00;102,2
2018-05-28 20:15;99,35
2018-05-28 20:30;102,4
2018-05-28 20:45;103,65
2018-05-28 21:00;104,6
2018-05-28 21:15;102,55
2018-05-28 21:30;103,25
2018-05-28 21:45;100,5
2018-05-28 22:00;97,4
2018-05-28 22:15;95,1
2018-05-28 22:30;92,8
2018-05-28 22:45;91,85
2018-05-28 23:00;92,75
2018-05-28 23:15;89,25
2018-05-28 23:30;89,85
2018-05-28 23:45;89,9
2018-05-29 00:00;88,75
2018-05-29 00:15;86,25
2018-05-29 00:30;81,7
2018-05-29 00:45;79,9
2018-05-29 01:00;77,55
2018-05-29 01:15;78,15
2018-05-29 01:30;76,9
2018-05-29 01:45;79,55
2018-05-29 02:00;79,9
2018-05-29 02:15;79,55
2018-05-29 02:30;79,9
2018-05-29 02:45;79,1
2018-05-29 03:00;79,25
2018-05-29 03:15;79,5
2018-05-29 03:30;80,45
2018-05-29 03:45;81,1
2018-05-29 04:00;81,4
2018-05-29 04:15;81,6
2018-05-29 04:30;81
2018-05-29 04:45;81,1
2018-05-29 05:00;81,3
2018-05-29 05:15;83,15
2018-05-29 05:30;83,55
2018-05-29 05:45;85,65
2018-05-29 06:00;86
2018-05-29 06:15;84,2
2018-05-29 06:30;80,75
2018-05-29 06:45;76,2
2018-05-29 07:00;78,35
2018-05-29 07:15;76,45
2018-05-29 07:30;79,95
2018-05-29 07:45;82,9
2018-05-29 08:00;87,05
2018-05-29 08:15;87,75
2018-05-29 08:30;98,6
2018-05-29 08:45;103,45
2018-05-29 09:00;111,6
2018-05-29 09:15;115,8
2018-05-29 09:30;120,65
2018-05-29 09:45;159,8
2018-05-29 10:00;200,75
2018-05-29 10:15;169,7
2018-05-29 10:30;163,9
2018-05-29 10:45;178,7
2018-05-29 11:00;175,35
2018-05-29 11:15;179,1
2018-05-29 11:30;174,95
2018-05-29 11:45;172,95
2018-05-29 12:00;173,05
2018-05-29 12:15;172,45
2018-05-29 12:30;177,95
2018-05-29 12:45;176,95
2018-05-29 13:00;182,55
2018-05-29 13:15;182,3
2018-05-29 13:30;180,75
2018-05-29 13:45;177,85
2018-05-29 14:00;177,3
2018-05-29 14:15;187,5
2018-05-29 14:30;180,7
2018-05-29 14:45;179,95
2018-05-29 15:00;175,85
2018-05-29 15:15;165
2018-05-29 15:30;170,2
2018-05-29 15:45;161,85
2018-05-29 16:00;161,3
2018-05-29 16:15;147,55
2018-05-29 16:30;150,3
2018-05-29 16:45;145,5
2018-05-29 17:00;148,4
2018-05-29 17:15;143,9
2018-05-29 17:30;145,5
2018-05-29 17:45;138,75
2018-05-29 18:00;140,15
2018-05-29 18:15;130,4
2018-05-29 18:30;129,95
2018-05-29 18:45;130,65
2018-05-29 19:00;126,4
2018-05-29 19:15;122,1
2018-05-29 19:30;119,3
2018-05-29 19:45;119,2
2018-05-29 20:00;122,2
2018-05-29 20:15;115,65
2018-05-29 20:30;115,7
2018-05-29 20:45;120,4
2018-05-29 21:00;118,35
2018-05-29 21:15;114,9
2018-05-29 21:30;113,55
2018-05-29 21:45;108,05
2018-05-29 22:00;103,4
2018-05-29 22:15;100
2018-05-29 22:30;97,5
2018-05-29 22:45;95,7
2018-05-29 23:00;91,25
2018-05-29 23:15;91,3
2018-05-29 23:30;90,1
2018-05-29 23:45;91,25
2018-05-30 00:00;86,1
2018-05-30 00:15;85,4
2018-05-30 00:30;85,7
2018-05-30 00:45;81,45
2018-05-30 01:00;78,1
2018-05-30 01:15;78,95
2018-05-30 01:30;78,1
2018-05-30 01:45;79,1
2018-05-30 02:00;77,95
2018-05-30 02:15;78,15
2018-05-30 02:30;77,15
2018-05-30 02:45;77,7
2018-05-30 03:00;77,1
2018-05-30 03:15;76,35
2018-05-30 03:30;78,1
2018-05-30 03:45;78,7
2018-05-30 04:00;78,3
2018-05-30 04:15;78,9
2018-05-30 04:30;77,65
2018-05-30 04:45;78,4
2018-05-30 05:00;78,65
2018-05-30 05:15;82,25
2018-05-30 05:30;84,2
2018-05-30 05:45;84,75
2018-05-30 06:00;84,9
2018-05-30 06:15;81,3
2018-05-30 06:30;79,7
2018-05-30 06:45;78,2
2018-05-30 07:00;77,9
2018-05-30 07:15;79,4
2018-05-30 07:30;82
2018-05-30 07:45;84,55
2018-05-30 08:00;87,75
2018-05-30 08:15;90,1
2018-05-30 08:30;94,1
2018-05-30 08:45;95,85
2018-05-30 09:00;106,8
2018-05-30 09:15;158,6
2018-05-30 09:30;130,5
2018-05-30 09:45;125,55
2018-05-30 10:00;132,25
2018-05-30 10:15;135,05
2018-05-30 10:30;149,9
2018-05-30 10:45;162,95
2018-05-30 11:00;169
2018-05-30 11:15;179,4
2018-05-30 11:30;184,65
2018-05-30 11:45;191,3
2018-05-30 12:00;189,8
2018-05-30 12:15;185,55
2018-05-30 12:30;184,85
2018-05-30 12:45;184,1
2018-05-30 13:00;187,8
2018-05-30 13:15;193,85
2018-05-30 13:30;188,6
2018-05-30 13:45;186,75
2018-05-30 14:00;190,5
2018-05-30 14:15;187,3
2018-05-30 14:30;184,65
2018-05-30 14:45;179,35
2018-05-30 15:00;174,25
2018-05-30 15:15;172,15
2018-05-30 15:30;167,4
2018-05-30 15:45;168,35
2018-05-30 16:00;160,3
2018-05-30 16:15;157,15
2018-05-30 16:30;155
2018-05-30 16:45;144,25
2018-05-30 17:00;148,85
2018-05-30 17:15;138,9
2018-05-30 17:30;143,9
2018-05-30 17:45;140,1
2018-05-30 18:00;143,85
2018-05-30 18:15;125,05
2018-05-30 18:30;122,8
2018-05-30 18:45;122
2018-05-30 19:00;116,95
2018-05-30 19:15;115,85
2018-05-30 19:30;114,4
2018-05-30 19:45;118,1
2018-05-30 20:00;114,3
2018-05-30 20:15;111,9
2018-05-30 20:30;108,65
2018-05-30 20:45;111,95
2018-05-30 21:00;110,3
2018-05-30 21:15;108,9
2018-05-30 21:30;107,55
2018-05-30 21:45;105,2
2018-05-30 22:00;101,2
2018-05-30 22:15;97,2
2018-05-30 22:30;96,75
2018-05-30 22:45;96,2
2018-05-30 23:00;96,2
2018-05-30 23:15;93,95
2018-05-30 23:30;93,75
2018-05-30 23:45;93,8
2018-05-31 00:00;90,5
2018-05-31 00:15;89,95
2018-05-31 00:30;90,8
2018-05-31 00:45;92,05
2018-05-31 01:00;92,7
2018-05-31 01:15;92,7
2018-05-31 01:30;87,65
2018-05-31 01:45;83,75
2018-05-31 02:00;82,95
2018-05-31 02:15;82,95
2018-05-31 02:30;83,9
2018-05-31 02:45;83,5
2018-05-31 03:00;82,85
2018-05-31 03:15;82,45
2018-05-31 03:30;82,4
2018-05-31 03:45;82,9
2018-05-31 04:00;84,35
2018-05-31 04:15;82,85
2018-05-31 04:30;84,05
2018-05-31 04:45;83,8
2018-05-31 05:00;83,25
2018-05-31 05:15;81,55
2018-05-31 05:30;82,8
2018-05-31 05:45;83,85
2018-05-31 06:00;87,3
2018-05-31 06:15;87
2018-05-31 06:30;83,05
2018-05-31 06:45;79
2018-05-31 07:00;80,85
2018-05-31 07:15;80,55
2018-05-31 07:30;85,75
2018-05-31 07:45;88,45
2018-05-31 08:00;93,8
2018-05-31 08:15;95,15
2018-05-31 08:30;98,6
2018-05-31 08:45;105,85
2018-05-31 09:00;112,3
2018-05-31 09:15;168,7
2018-05-31 09:30;138,6
2018-05-31 09:45;135,55
2018-05-31 10:00;143,05
2018-05-31 10:15;146,2
2018-05-31 10:30;150,7
2018-05-31 10:45;154,95
2018-05-31 11:00;163,55
2018-05-31 11:15;179,95
2018-05-31 11:30;181,5
2018-05-31 11:45;181,95
2018-05-31 12:00;188,3
2018-05-31 12:15;183,45
2018-05-31 12:30;186,45
2018-05-31 12:45;185,2
2018-05-31 13:00;181,25
2018-05-31 13:15;180,8
2018-05-31 13:30;182,95
2018-05-31 13:45;193,75
2018-05-31 14:00;185,95
2018-05-31 14:15;183,65
2018-05-31 14:30;177,3
2018-05-31 14:45;185,75
2018-05-31 15:00;184,1
2018-05-31 15:15;186,05
2018-05-31 15:30;176,3
2018-05-31 15:45;176,25
2018-05-31 16:00;173,05
2018-05-31 16:15;170,75
2018-05-31 16:30;170,35
2018-05-31 16:45;166,85
2018-05-31 17:00;161,85
2018-05-31 17:15;157,1
2018-05-31 17:30;159,55
2018-05-31 17:45;158,45
2018-05-31 18:00;155,55
2018-05-31 18:15;145,05
2018-05-31 18:30;136,1
2018-05-31 18:45;129,1
2018-05-31 19:00;126,65
2018-05-31 19:15;124,65
2018-05-31 19:30;126,95
2018-05-31 19:45;125
2018-05-31 20:00;121,65
2018-05-31 20:15;119,3
2018-05-31 20:30;117,95
2018-05-31 20:45;118,95
2018-05-31 21:00;120,6
2018-05-31 21:15;116,4
2018-05-31 21:30;114,7
2018-05-31 21:45;112,9
2018-05-31 22:00;108,7
2018-05-31 22:15;105,1
2018-05-31 22:30;102,3
2018-05-31 22:45;100,8
2018-05-31 23:00;97,4
2018-05-31 23:15;95,1
2018-05-31 23:30;93,3
2018-05-31 23:45;93,15
2018-06-01 00:00;91,35
2018-06-01 00:15;90,5
2018-06-01 00:30;90,15
2018-06-01 00:45;89,2
2018-06-01 01:00;89,65
2018-06-01 01:15;89,65
2018-06-01 01:30;90,1
2018-06-01 01:45;88,3
2018-06-01 02:00;81,75
2018-06-01 02:15;80,4
2018-06-01 02:30;80,3
2018-06-01 02:45;79,1
2018-06-01 03:00;79,95
2018-06-01 03:15;80,05
2018-06-01 03:30;80,5
2018-06-01 03:45;80,8
2018-06-01 04:00;84,1
2018-06-01 04:15;85,1
2018-06-01 04:30;84,7
2018-06-01 04:45;86,25
2018-06-01 05:00;84,15
2018-06-01 05:15;87,1
2018-06-01 05:30;87,2
2018-06-01 05:45;89,05
2018-06-01 06:00;88,3
2018-06-01 06:15;86,55
2018-06-01 06:30;87,2
2018-06-01 06:45;84,8
2018-06-01 07:00;86,2
2018-06-01 07:15;86,65
2018-06-01 07:30;89,25
2018-06-01 07:45;92
2018-06-01 08:00;95,3
2018-06-01 08:15;97,4
2018-06-01 08:30;98,9
2018-06-01 08:45;102,7
2018-06-01 09:00;109,1
2018-06-01 09:15;162,3
2018-06-01 09:30;135,7
2018-06-01 09:45;136,65
2018-06-01 10:00;138,6
2018-06-01 10:15;143,65
2018-06-01 10:30;153,3
2018-06-01 10:45;162,4
2018-06-01 11:00;171,35
2018-06-01 11:15;172,9
2018-06-01 11:30;184,9
2018-06-01 11:45;187,5
2018-06-01 12:00;181,2
2018-06-01 12:15;188
2018-06-01 12:30;191,4
2018-06-01 12:45;192,55
2018-06-01 13:00;193,9
2018-06-01 13:15;188,7
2018-06-01 13:30;187,3
2018-06-01 13:45;186,35
2018-06-01 14:00;188,95
2018-06-01 14:15;193,2
2018-06-01 14:30;193,25
2018-06-01 14:45;191,2
2018-06-01 15:00;182,25
2018-06-01 15:15;185,7
2018-06-01 15:30;174,95
2018-06-01 15:45;178,25
2018-06-01 16:00;172,4
2018-06-01 16:15;166,8
2018-06-01 16:30;166,35
2018-06-01 16:45;162,8
2018-06-01 17:00;160,15
2018-06-01 17:15;156,65
2018-06-01 17:30;155,95
2018-06-01 17:45;145,55
2018-06-01 18:00;145,55
2018-06-01 18:15;135,8
2018-06-01 18:30;126,3
2018-06-01 18:45;129
2018-06-01 19:00;127,2
2018-06-01 19:15;128,2
2018-06-01 19:30;127,5
2018-06-01 19:45;132,9
2018-06-01 20:00;127,9
2018-06-01 20:15;121,2
2018-06-01 20:30;120,6
2018-06-01 20:45;119,75
2018-06-01 21:00;121
2018-06-01 21:15;118,85
2018-06-01 21:30;116,4
2018-06-01 21:45;112,5
2018-06-01 22:00;104,15
2018-06-01 22:15;101,35
2018-06-01 22:30;99,9
2018-06-01 22:45;111,45
2018-06-01 23:00;106,9
2018-06-01 23:15;102,65
2018-06-01 23:30;101,4
2018-06-01 23:45;100,8
2018-06-02 00:00;97,4
2018-06-02 00:15;87,5
2018-06-02 00:30;85,05
2018-06-02 00:45;87,95
2018-06-02 01:00;96,1
2018-06-02 01:15;91,8
2018-06-02 01:30;90,45
2018-06-02 01:45;85,4
2018-06-02 02:00;84,55
2018-06-02 02:15;83,05
2018-06-02 02:30;81,35
2018-06-02 02:45;79,95
2018-06-02 03:00;81,05
2018-06-02 03:15;81,25
2018-06-02 03:30;81,25
2018-06-02 03:45;82,05
2018-06-02 04:00;80,85
2018-06-02 04:15;81,2
2018-06-02 04:30;82,9
2018-06-02 04:45;81,65
2018-06-02 05:00;81,6
2018-06-02 05:15;82,15
2018-06-02 05:30;81
2018-06-02 05:45;82,45
2018-06-02 06:00;83,8
2018-06-02 06:15;82,65
2018-06-02 06:30;81,45
2018-06-02 06:45;80,25
2018-06-02 07:00;78,9
2018-06-02 07:15;76,45
2018-06-02 07:30;73,65
2018-06-02 07:45;76,7
2018-06-02 08:00;77,5
2018-06-02 08:15;76,85
2018-06-02 08:30;77,85
2018-06-02 08:45;82,95
2018-06-02 09:00;79,4
2018-06-02 09:15;81,05
2018-06-02 09:30;80,5
2018-06-02 09:45;81,1
2018-06-02 10:00;81
2018-06-02 10:15;82,95
2018-06-02 10:30;82,8
2018-06-02 10:45;83,75
2018-06-02 11:00;86,8
2018-06-02 11:15;89,4
2018-06-02 11:30;90,2
2018-06-02 11:45;91,9
2018-06-02 12:00;89
2018-06-02 12:15;90,1
2018-06-02 12:30;90,15
2018-06-02 12:45;92,4
2018-06-02 13:00;90,75
2018-06-02 13:15;96,35
2018-06-02 13:30;94,85
2018-06-02 13:45;97,75
2018-06-02 14:00;99,1
2018-06-02 14:15;99,25
2018-06-02 14:30;96
2018-06-02 14:45;95,85
2018-06-02 15:00;96,8
2018-06-02 15:15;96,75
2018-06-02 15:30;97,5
2018-06-02 15:45;93,95
2018-06-02 16:00;91,35
2018-06-02 16:15;91,2
2018-06-02 16:30;94,6
2018-06-02 16:45;90,55
2018-06-02 17:00;91,75
2018-06-02 17:15;91,4
2018-06-02 17:30;93,8
2018-06-02 17:45;92,9
2018-06-02 18:00;89,85
2018-06-02 18:15;91,95
2018-06-02 18:30;94,1
2018-06-02 18:45;90
2018-06-02 19:00;88,7
2018-06-02 19:15;92
2018-06-02 19:30;95,4
2018-06-02 19:45;99,05
2018-06-02 20:00;95,2
2018-06-02 20:15;93,6
2018-06-02 20:30;95,85
2018-06-02 20:45;99,9
2018-06-02 21:00;100,1
2018-06-02 21:15;100,4
2018-06-02 21:30;99,35
2018-06-02 21:45;94,7
2018-06-02 22:00;92,85
2018-06-02 22:15;92,45
2018-06-02 22:30;91
2018-06-02 22:45;89,9
2018-06-02 23:00;89,55
2018-06-02 23:15;89,3
2018-06-02 23:30;87,3
2018-06-02 23:45;87,9
2018-06-03 00:00;87,4
2018-06-03 00:15;85,65
2018-06-03 00:30;86,45
2018-06-03 00:45;87,05
2018-06-03 01:00;84,25
2018-06-03 01:15;86,15
2018-06-03 01:30;88,05
2018-06-03 01:45;86
2018-06-03 02:00;86,1
2018-06-03 02:15;84,85
2018-06-03 02:30;83,55
2018-06-03 02:45;84,3
2018-06-03 03:00;84,6
2018-06-03 03:15;83,8
2018-06-03 03:30;84,4
2018-06-03 03:45;85,4
2018-06-03 04:00;84,4
2018-06-03 04:15;85,65
2018-06-03 04:30;85,4
2018-06-03 04:45;85,75
2018-06-03 05:00;86,8
2018-06-03 05:15;85,8
2018-06-03 05:30;84,45
2018-06-03 05:45;86,75
2018-06-03 06:00;82,65
2018-06-03 06:15;82,8
2018-06-03 06:30;82,2
2018-06-03 06:45;77,75
2018-06-03 07:00;77,8
2018-06-03 07:15;79,5
2018-06-03 07:30;76,95
2018-06-03 07:45;75,5
2018-06-03 08:00;76,95
2018-06-03 08:15;77,95
2018-06-03 08:30;77,45
2018-06-03 08:45;79,55
2018-06-03 09:00;80,35
2018-06-03 09:15;80,1
2018-06-03 09:30;80,5
2018-06-03 09:45;82,65
2018-06-03 10:00;79,6
2018-06-03 10:15;81,2
2018-06-03 10:30;80,7
2018-06-03 10:45;82,9
2018-06-03 11:00;84,45
2018-06-03 11:15;85,6
2018-06-03 11:30;83,85
2018-06-03 11:45;86,2
2018-06-03 12:00;83,6
2018-06-03 12:15;85,9
2018-06-03 12:30;84,8
2018-06-03 12:45;85,75
2018-06-03 13:00;86,35
2018-06-03 13:15;88,65
2018-06-03 13:30;92,4
2018-06-03 13:45;87,9
2018-06-03 14:00;90,95
2018-06-03 14:15;94,25
2018-06-03 14:30;89,8
2018-06-03 14:45;87,55
2018-06-03 15:00;86,6
2018-06-03 15:15;88,6
2018-06-03 15:30;89,25
2018-06-03 15:45;88,4
2018-06-03 16:00;89,5
2018-06-03 16:15;87,9
2018-06-03 16:30;90,4
2018-06-03 16:45;90,55
2018-06-03 17:00;87,8
2018-06-03 17:15;90,4
2018-06-03 17:30;87,75
2018-06-03 17:45;90,1
2018-06-03 18:00;89,05
2018-06-03 18:15;92,35
2018-06-03 18:30;92,9
2018-06-03 18:45;91,45
2018-06-03 19:00;91,6
2018-06-03 19:15;92,65
2018-06-03 19:30;95,45
2018-06-03 19:45;97,25
2018-06-03 20:00;95,5
2018-06-03 20:15;95
2018-06-03 20:30;93,55
2018-06-03 20:45;95,25
2018-06-03 21:00;99,5
2018-06-03 21:15;97,25
2018-06-03 21:30;99,2
2018-06-03 21:45;97
2018-06-03 22:00;94,35
2018-06-03 22:15;96,9
2018-06-03 22:30;95,55
2018-06-03 22:45;95,55
2018-06-03 23:00;94,55
2018-06-03 23:15;93,7
2018-06-03 23:30;93,35
2018-06-03 23:45;96,5

